Погода в Ярках

Россия / Новосибирская область     54°47′29″N   79°43′33″E
темп.,
°C
ветер,
м/с
пор.,
м/с
влажн.,
%
обл.,
%
осадки,
мм/ч
давл.,
гПа
погр.,
м
21 января, чт
чт2101:00−19вюв4893100 0.1 1022319
04:00−18юв3796100 0.3 1020263
07:00−19ююв349799 0.4 101984
10:00−18ююз489799 0.1 1018180
13:00−16юз4995100 0.1 1018294
16:00−17юз3795100 0.0 1017219
19:00−19ююз3397100 0.0 101663
22:00−19юз2396100 0.0 101580
22 января, пт
пт2201:00−17юз2496100 0.0 1013173
04:00−17зюз2497100 0.7 1011242
07:00−17зюз2597100 1.3 1011246
10:00−21з469994 0.1 1012103
13:00−23з479567 0.1 1014249
16:00−24з369640 0.0 1016231
19:00−27зюз349768 0.0 101866
22:00−27юз3697100 0.0 1020119
23 января, сб
сб2301:00−25юз4896100 0.1 1022260
04:00−25юз4897100 0.1 1023272
07:00−24юз4897100 0.3 1025314
10:00−24юз3797100 0.1 1027241
13:00−22юз479698 0.1 1028337
16:00−21юз3695100 0.1 1029402
19:00−23зюз3598100 0.1 1030127
22:00−24з3598100 0.1 1032177
24 января, вс
вс2401:00−27зсз3598100 0.1 1032211
04:00−32зсз349792 0.1 103565
07:00−37зсз349849 0.1 103638
10:00−38з34986 0.0 103940
13:00−36з359518 0.0 1041198
16:00−36з359428 0.0 1042263
19:00−39з339627 0.0 104421
22:00−40зюз239727 0.0 104518
25 января, пн
пн2501:00−41юз229926 0.0 104518
04:00−41ю229833 0.0 104618
07:00−39ююв239657 0.0 104522
10:00−36юв3595100 0.0 1043104
13:00−32вюв3594100 0.0 1040194
16:00−29вюв4694100 0.0 1038223
19:00−29в479597 0.0 1037226
22:00−31в359786 0.0 103782